Pinedale, WY

8:56 AM MST on December 16, 2017 (GMT -0700)
Wenz

Weather History for KPNA - December, 2012

Change the Weather History Date:

Thursday, December 6, 2012

  Actual Average (KBPI) Record (KBPI)
Temperature  
Mean Temperature 27 °F -  
Max Temperature 37 °F 26 °F 47 °F (2008)
Min Temperature 17 °F 2 °F -28 °F (1978)
Degree Days  
Heating Degree Days 38    
Moisture  
Dew Point 24 °F    
Average Humidity 79    
Maximum Humidity 100    
Minimum Humidity 60    
Precipitation  
Precipitation 0.00 in - - ()
Sea Level Pressure  
Sea Level Pressure 29.96 in    
Wind  
Wind Speed 5 mph (NW)    
Max Wind Speed 14 mph    
Max Gust Speed 21 mph    
Visibility 10 miles    
Events Snow    
Averages and records for this station are not official NWS values.
T = Trace of Precipitation, MM = Missing Value Source: NWS Daily Summary

Daily Weather History Graph

Daily Weather History Graph

Search for Another Location

Airport or City:

Trip Planner

Search our weather history database for the weather conditions in past years. The results will help you decide how hot, cold, wet, or windy it might be!

Date:

Astronomy

Dec. 06, 2012 Rise Set
Actual Time 7:35 AM MST 4:45 PM MST
Civil Twilight 7:03 AM MST 5:17 PM MST
Nautical Twilight 6:28 AM MST 5:52 PM MST
Astronomical Twilight 5:54 AM MST 6:26 PM MST
Moon No Moon Rise 12:21 PM MST (12/6)
Length of Visible Light 10h 13m
Length of Day
9h 09m
Waning Gibbous, 48% of the Moon is Illuminated
Dec 6
Waning Gibbous
Dec 13
New
Dec 19
First Quarter
Dec 28
Full
Jan 4
Last Quarter

Hourly Weather History & Observations

Time (MST) Temp. Windchill Dew Point Humidity Pressure Visibility Wind Dir Wind Speed Gust Speed Precip Events Conditions
12:15 AM 28.4 °F 19.7 °F 26.6 °F 93% 30.06 in 10.0 mi WNW 9.2 mph - N/A   Mostly Cloudy
12:35 AM 28.4 °F 20.4 °F 26.6 °F 93% 30.06 in 10.0 mi WNW 8.1 mph - N/A   Mostly Cloudy
12:55 AM 26.6 °F - 26.6 °F 100% 30.06 in 10.0 mi Calm Calm - N/A   Mostly Cloudy
1:15 AM 24.8 °F 16.9 °F 23.0 °F 93% 30.05 in 10.0 mi West 6.9 mph - N/A   Scattered Clouds
6:35 AM 21.2 °F - 19.4 °F 93% 30.05 in 10.0 mi Calm Calm - N/A   Clear
6:55 AM 19.4 °F - 17.6 °F 93% 30.04 in 10.0 mi Calm Calm - N/A   Scattered Clouds
7:15 AM 21.2 °F - 19.4 °F 93% 30.03 in 10.0 mi Calm Calm - N/A   Scattered Clouds
7:35 AM 17.6 °F 12.3 °F 17.6 °F 100% 30.03 in 10.0 mi West 3.5 mph - N/A   Clear
7:55 AM 17.6 °F 12.3 °F 17.6 °F 100% 30.03 in 10.0 mi NW 3.5 mph - N/A   Clear
8:15 AM 19.4 °F - 19.4 °F 100% 30.03 in 10.0 mi Calm Calm - N/A   Clear
8:35 AM 21.2 °F - 21.2 °F 100% 30.03 in 10.0 mi Calm Calm - N/A   Clear
8:55 AM 24.8 °F 20.5 °F 23.0 °F 93% 30.03 in 10.0 mi West 3.5 mph - N/A   Clear
9:15 AM 26.6 °F 22.6 °F 26.6 °F 100% 30.04 in 10.0 mi West 3.5 mph - N/A   Clear
9:55 AM 32.0 °F - 26.6 °F 80% 30.03 in 10.0 mi Calm Calm - N/A   Clear
10:15 AM 32.0 °F - 26.6 °F 80% 30.03 in 10.0 mi Calm Calm - N/A   Clear
10:35 AM 33.8 °F 27.7 °F 23.0 °F 65% 30.03 in 10.0 mi WNW 6.9 mph - N/A   Scattered Clouds
10:55 AM 35.6 °F 28.6 °F 23.0 °F 60% 30.03 in 10.0 mi West 9.2 mph - N/A   Scattered Clouds
11:15 AM 35.6 °F 30.7 °F 23.0 °F 60% 30.01 in 10.0 mi West 5.8 mph - N/A   Overcast
11:35 AM 35.6 °F 30.7 °F 23.0 °F 60% 30.00 in 10.0 mi NNW 5.8 mph - N/A   Overcast
11:55 AM 35.6 °F 28.6 °F 23.0 °F 60% 29.99 in 10.0 mi NNW 9.2 mph - N/A   Overcast
12:15 PM 33.8 °F 27.7 °F 23.0 °F 65% 29.99 in 10.0 mi NNW 6.9 mph - N/A   Overcast
12:35 PM 33.8 °F 27.7 °F 23.0 °F 65% 29.98 in 10.0 mi NW 6.9 mph - N/A   Overcast
1:15 PM 33.8 °F 30.8 °F 23.0 °F 65% 29.97 in 10.0 mi North 3.5 mph - N/A   Overcast
1:35 PM 35.6 °F 29.9 °F 23.0 °F 60% 29.96 in 10.0 mi NNW 6.9 mph - N/A   Overcast
1:55 PM 35.6 °F 29.2 °F 24.8 °F 65% 29.95 in 10.0 mi North 8.1 mph - N/A   Overcast
2:15 PM 37.4 °F 33.8 °F 24.8 °F 60% 29.94 in 10.0 mi NNE 4.6 mph - N/A   Overcast
2:35 PM 35.6 °F - 23.0 °F 60% 29.93 in 10.0 mi Calm Calm - N/A   Scattered Clouds
2:55 PM 35.6 °F 32.8 °F 23.0 °F 60% 29.93 in 10.0 mi NNW 3.5 mph - N/A   Scattered Clouds
3:15 PM 35.6 °F 30.7 °F 23.0 °F 60% 29.92 in 10.0 mi NW 5.8 mph - N/A   Scattered Clouds
3:35 PM 33.8 °F 25.3 °F 23.0 °F 65% 29.92 in 10.0 mi West 11.5 mph - N/A   Scattered Clouds
3:55 PM 33.8 °F 25.8 °F 21.2 °F 60% 29.91 in 10.0 mi West 10.4 mph - N/A   Scattered Clouds
4:15 PM 33.8 °F 26.4 °F 23.0 °F 65% 29.92 in 10.0 mi West 9.2 mph - N/A   Scattered Clouds
4:35 PM 33.8 °F 26.4 °F 21.2 °F 60% 29.92 in 10.0 mi West 9.2 mph - N/A   Mostly Cloudy
4:55 PM 32.0 °F 25.6 °F 23.0 °F 69% 29.92 in 10.0 mi West 6.9 mph - N/A   Mostly Cloudy
5:15 PM 32.0 °F 27.5 °F 23.0 °F 69% 29.92 in 10.0 mi WNW 4.6 mph - N/A   Mostly Cloudy
5:35 PM 30.2 °F - 21.2 °F 69% 29.91 in 10.0 mi Calm Calm - N/A   Mostly Cloudy
5:55 PM 30.2 °F - 23.0 °F 75% 29.90 in 10.0 mi Calm Calm - N/A   Overcast
6:15 PM 32.0 °F - 23.0 °F 69% 29.90 in 10.0 mi Calm Calm - N/A   Overcast
6:35 PM 32.0 °F - 21.2 °F 64% 29.89 in 10.0 mi Calm Calm - N/A   Overcast
6:55 PM 30.2 °F 26.7 °F 24.8 °F 80% 29.89 in 10.0 mi NW 3.5 mph - N/A   Overcast
7:35 PM 30.2 °F - 24.8 °F 80% 29.89 in 10.0 mi Calm Calm - N/A   Overcast
7:55 PM 30.2 °F 21.9 °F 28.4 °F 93% 29.88 in 10.0 mi NNW 9.2 mph - N/A   Overcast
8:15 PM 30.2 °F 24.3 °F 30.2 °F 100% 29.88 in 10.0 mi North 5.8 mph - N/A   Overcast
8:35 PM 30.2 °F 25.4 °F 30.2 °F 100% 29.87 in 10.0 mi North 4.6 mph - N/A   Overcast
8:55 PM 30.2 °F 25.4 °F 30.2 °F 100% 29.87 in 10.0 mi North 4.6 mph - N/A   Overcast
9:15 PM 30.2 °F 25.4 °F 30.2 °F 100% 29.89 in 10.0 mi NW 4.6 mph - N/A   Overcast
9:35 PM 30.2 °F - 30.2 °F 100% 29.88 in 4.0 mi Calm Calm - N/A Snow Light Snow
9:55 PM 28.4 °F - 28.4 °F 100% 29.88 in 10.0 mi Calm Calm - N/A   Overcast
10:15 PM 28.4 °F 24.6 °F 28.4 °F 100% 29.88 in 10.0 mi West 3.5 mph - N/A   Mostly Cloudy
10:35 PM 30.2 °F 19.8 °F 26.6 °F 86% 29.88 in 10.0 mi WNW 13.8 mph 19.6 mph N/A   Scattered Clouds
10:55 PM 30.2 °F 20.2 °F 23.0 °F 75% 29.88 in 10.0 mi WNW 12.7 mph 20.7 mph N/A   Clear
11:15 PM 28.4 °F 19.7 °F 23.0 °F 80% 29.88 in 10.0 mi NW 9.2 mph - N/A   Clear
11:35 PM 28.4 °F 18.0 °F 21.2 °F 74% 29.89 in 10.0 mi NW 12.7 mph 19.6 mph N/A   Clear
11:55 PM 26.6 °F 18.2 °F 21.2 °F 80% 29.90 in 10.0 mi WNW 8.1 mph - N/A   Scattered Clouds